Weather History for Immokalee Regional Airport [I, FL

Change the Weather History Date:

Friday, November 29, 2013

  Actual Average (KFMY) Record (KFMY)
Temperature  
Mean Temperature 66 °F 69 °F  
Max Temperature 80 °F 79 °F 89 °F (1990)
Min Temperature 51 °F 60 °F 37 °F (1959)
Degree Days  
Heating Degree Days 0 1  
Month to date heating degree days 14  
Since 1 July heating degree days 16  
Cooling Degree Days 0 5  
Month to date cooling degree days 211  
Year to date cooling degree days 3859  
Growing Degree Days 16 (Base 50)    
Moisture  
Dew Point 60 °F    
Average Humidity 73    
Maximum Humidity 100    
Minimum Humidity 45    
Precipitation  
Precipitation 0.00 in 0.05 in 1.16 in (2005)
Month to date precipitation 1.90  
Year to date precipitation 54.16  
Sea Level Pressure  
Sea Level Pressure 30.26 in    
Wind  
Wind Speed 10 mph (NNE)    
Max Wind Speed 22 mph    
Max Gust Speed 26 mph    
Visibility 10 miles    
Events      
T = Trace of Precipitation, MM = Missing Value Source: NWS Daily Summary

Daily Weather History Graph

Daily Weather History Graph

Search for Another Location

Airport:

Trip Planner

Search our weather history database for the weather conditions in past years. The results will help you decide how hot, cold, wet, or windy it might be!

Date:

Astronomy

Nov. 29, 2013 Rise Set
Actual Time 6:55 AM EST 5:32 PM EST
Civil Twilight 6:30 AM EST 5:57 PM EST
Nautical Twilight 6:01 AM EST 6:26 PM EST
Astronomical Twilight 5:33 AM EST 6:54 PM EST
Moon 3:17 AM EST (11/29) 3:00 PM EST (11/29)
Length of Visible Light 11h 27m
Length of Day
10h 37m
Waning Crescent, 14% of the Moon is Illuminated
Nov 29
Waning Crescent
Dec 2
New
Dec 9
First Quarter
Dec 17
Full
Dec 25
Last Quarter

Hourly Weather History & Observations

Time (EST) Temp. Heat Index Dew Point Humidity Pressure Visibility Wind Dir Wind Speed Gust Speed Precip Events Conditions
12:15 AM 53.6 °F - 53.6 °F 100% 30.28 in 10.0 mi North 6.9 mph - 0.00 in   Clear
12:35 AM 53.6 °F - 53.6 °F 100% 30.27 in 10.0 mi North 8.1 mph - 0.00 in   Clear
12:55 AM 53.6 °F - - N/A% 30.27 in 10.0 mi North 6.9 mph - 0.00 in   Clear
1:15 AM 53.6 °F - - N/A% 30.27 in 10.0 mi North 8.1 mph - 0.00 in   Clear
1:35 AM 53.6 °F - - N/A% 30.27 in 10.0 mi North 8.1 mph - 0.00 in   Clear
1:55 AM 53.6 °F - - N/A% 30.26 in 10.0 mi North 5.8 mph - 0.00 in   Clear
2:15 AM 53.6 °F - - N/A% 30.27 in 10.0 mi North 6.9 mph - 0.00 in   Clear
2:35 AM 53.6 °F - - N/A% 30.25 in 10.0 mi North 6.9 mph - 0.00 in   Clear
2:55 AM 53.6 °F - - N/A% 30.26 in 10.0 mi North 8.1 mph - 0.00 in   Clear
3:15 AM 53.6 °F - - N/A% 30.25 in 10.0 mi North 8.1 mph - 0.00 in   Clear
3:35 AM 53.6 °F - - N/A% 30.25 in 10.0 mi North 8.1 mph - 0.00 in   Clear
3:55 AM 53.6 °F - - N/A% 30.25 in 10.0 mi North 9.2 mph - 0.00 in   Clear
4:15 AM 53.6 °F - - N/A% 30.26 in 10.0 mi North 8.1 mph - 0.00 in   Clear
4:35 AM 51.8 °F - - N/A% 30.26 in 10.0 mi North 4.6 mph - 0.00 in   Clear
4:55 AM 51.8 °F - - N/A% 30.26 in 10.0 mi NNW 5.8 mph - 0.00 in   Clear
5:15 AM 51.8 °F - - N/A% 30.26 in 10.0 mi North 4.6 mph - 0.00 in   Clear
5:35 AM 51.8 °F - - N/A% 30.27 in 10.0 mi NNW 4.6 mph - 0.00 in   Clear
5:55 AM 51.8 °F - - N/A% 30.27 in 10.0 mi North 5.8 mph - 0.00 in   Clear
6:15 AM 51.8 °F - - N/A% 30.28 in 10.0 mi North 5.8 mph - 0.00 in   Clear
6:35 AM 51.8 °F - - N/A% 30.28 in 10.0 mi North 5.8 mph - 0.00 in   Clear
6:55 AM 51.8 °F - - N/A% 30.28 in 10.0 mi North 5.8 mph - 0.00 in   Clear
7:15 AM 51.8 °F - - N/A% 30.29 in 10.0 mi North 5.8 mph - 0.00 in   Clear
7:35 AM 53.6 °F - - N/A% 30.29 in 10.0 mi North 5.8 mph - 0.00 in   Clear
7:55 AM 55.4 °F - - N/A% 30.30 in 10.0 mi North 4.6 mph - 0.00 in   Clear
8:15 AM 59.0 °F - 59.0 °F 100% 30.31 in 10.0 mi North 6.9 mph - 0.00 in   Clear
8:35 AM 62.6 °F - 60.8 °F 94% 30.31 in 10.0 mi North 8.1 mph - 0.00 in   Clear
8:55 AM 64.4 °F - 60.8 °F 88% 30.31 in 10.0 mi North 8.1 mph - 0.00 in   Clear
9:15 AM 66.2 °F - 60.8 °F 83% 30.31 in 10.0 mi NNE 10.4 mph - 0.00 in   Clear
9:35 AM 69.8 °F - 60.8 °F 73% 30.32 in 10.0 mi NNE 15.0 mph - 0.00 in   Clear
9:55 AM 71.6 °F - 60.8 °F 69% 30.31 in 10.0 mi NNE 13.8 mph - 0.00 in   Clear
10:15 AM 71.6 °F - 60.8 °F 69% 30.31 in 10.0 mi NNE 15.0 mph - 0.00 in   Clear
10:35 AM 73.4 °F - 60.8 °F 65% 30.31 in 10.0 mi NNE 15.0 mph - 0.00 in   Clear
10:55 AM 75.2 °F - 60.8 °F 61% 30.30 in 10.0 mi NE 15.0 mph - 0.00 in   Clear
11:15 AM 75.2 °F - 60.8 °F 61% 30.30 in 10.0 mi NNE 13.8 mph - 0.00 in   Clear
11:35 AM 75.2 °F - 60.8 °F 61% 30.29 in 10.0 mi NE 15.0 mph 20.7 mph 0.00 in   Clear
11:55 AM 77.0 °F - 60.8 °F 57% 30.27 in 10.0 mi NE 16.1 mph 23.0 mph 0.00 in   Clear
12:15 PM 78.8 °F - 60.8 °F 54% 30.26 in 10.0 mi NE 16.1 mph 23.0 mph 0.00 in   Clear
12:35 PM 78.8 °F - 60.8 °F 54% 30.25 in 10.0 mi NE 20.7 mph 25.3 mph 0.00 in   Partly Cloudy
12:55 PM 78.8 °F - 60.8 °F 54% 30.25 in 10.0 mi ENE 19.6 mph 25.3 mph 0.00 in   Scattered Clouds
1:15 PM 78.8 °F - 59.0 °F 51% 30.24 in 10.0 mi NE 20.7 mph 25.3 mph 0.00 in   Scattered Clouds
1:35 PM 78.8 °F - 59.0 °F 51% 30.23 in 10.0 mi ENE 17.3 mph 25.3 mph 0.00 in   Partly Cloudy
1:55 PM 78.8 °F - 59.0 °F 51% 30.22 in 10.0 mi NE 20.7 mph 25.3 mph 0.00 in   Partly Cloudy
2:15 PM 80.6 °F 80.8 °F 57.2 °F 45% 30.22 in 10.0 mi NE 21.9 mph 25.3 mph 0.00 in   Scattered Clouds
2:35 PM 78.8 °F - 57.2 °F 47% 30.21 in 10.0 mi NE 21.9 mph 26.5 mph 0.00 in   Partly Cloudy
2:55 PM 78.8 °F - 57.2 °F 47% 30.21 in 10.0 mi NE 17.3 mph 24.2 mph 0.00 in   Partly Cloudy
3:15 PM 78.8 °F - 57.2 °F 47% 30.21 in 10.0 mi NE 18.4 mph 25.3 mph 0.00 in   Partly Cloudy
3:35 PM 75.2 °F - 57.2 °F 53% 30.22 in 10.0 mi NE 17.3 mph 23.0 mph 0.00 in   Mostly Cloudy
3:55 PM 75.2 °F - 57.2 °F 53% 30.22 in 10.0 mi NE 17.3 mph - 0.00 in   Scattered Clouds
4:15 PM 75.2 °F - 57.2 °F 53% 30.22 in 10.0 mi NE 13.8 mph - 0.00 in   Partly Cloudy
4:35 PM 75.2 °F - 57.2 °F 53% 30.22 in 10.0 mi NE 16.1 mph 20.7 mph 0.00 in   Clear
4:55 PM 73.4 °F - 57.2 °F 57% 30.23 in 10.0 mi NE 15.0 mph 18.4 mph 0.00 in   Clear
5:15 PM 71.6 °F - 59.0 °F 64% 30.23 in 10.0 mi NE 13.8 mph 18.4 mph 0.00 in   Partly Cloudy
5:35 PM 71.6 °F - 60.8 °F 69% 30.24 in 10.0 mi NNE 12.7 mph 19.6 mph 0.00 in   Clear
5:55 PM 69.8 °F - 60.8 °F 73% 30.24 in 10.0 mi NE 13.8 mph - 0.00 in   Clear
6:15 PM 69.8 °F - 62.6 °F 78% 30.25 in 10.0 mi NE 12.7 mph - 0.00 in   Clear
6:35 PM 69.8 °F - 62.6 °F 78% 30.25 in 10.0 mi NE 12.7 mph - 0.00 in   Clear
6:55 PM 68.0 °F - 60.8 °F 78% 30.26 in 10.0 mi NE 12.7 mph - 0.00 in   Clear
7:15 PM 66.2 °F - 62.6 °F 88% 30.26 in 10.0 mi NE 10.4 mph - 0.00 in   Clear
7:35 PM 66.2 °F - 62.6 °F 88% 30.26 in 10.0 mi NNE 11.5 mph - 0.00 in   Scattered Clouds
7:55 PM 66.2 °F - 62.6 °F 88% 30.26 in 10.0 mi NE 8.1 mph - 0.00 in   Scattered Clouds
8:15 PM 64.4 °F - 62.6 °F 94% 30.26 in 10.0 mi NE 9.2 mph - 0.00 in   Clear
8:35 PM 64.4 °F - 62.6 °F 94% 30.27 in 10.0 mi NNE 8.1 mph - 0.00 in   Clear
8:55 PM 64.4 °F - 62.6 °F 94% 30.28 in 10.0 mi North 10.4 mph - 0.00 in   Clear
9:15 PM 62.6 °F - 62.6 °F 100% 30.28 in 10.0 mi NNE 11.5 mph - 0.00 in   Clear
9:35 PM 62.6 °F - 62.6 °F 100% 30.28 in 10.0 mi NNE 12.7 mph - 0.00 in   Clear
9:55 PM 60.8 °F - 60.8 °F 100% 30.28 in 10.0 mi North 9.2 mph - 0.00 in   Clear
10:15 PM 60.8 °F - 60.8 °F 100% 30.28 in 10.0 mi North 10.4 mph - 0.00 in   Clear
10:35 PM 60.8 °F - 60.8 °F 100% 30.28 in 10.0 mi North 8.1 mph - 0.00 in   Clear
10:55 PM 59.0 °F - 59.0 °F 100% 30.28 in 10.0 mi North 10.4 mph - 0.00 in   Clear
11:15 PM 59.0 °F - - N/A% 30.28 in 10.0 mi North 10.4 mph - 0.00 in   Clear
11:35 PM 57.2 °F - - N/A% 30.28 in 10.0 mi North 6.9 mph - 0.00 in   Clear
11:55 PM 57.2 °F - - N/A% 30.27 in 10.0 mi North 8.1 mph - 0.00 in   Clear